Location: *
(50.3440°N, 18.6237°E)
Time: 14:25:41
(UTC+00:00)

Cosmos 1633 Rocket - Pass Details

Date: 30 November 2020
Orbit: 607 x 623 km, 82.5° (Epoch: 27 January)

Event Time Altitude Azimuth Distance (km) Brightness Sun altitude
Rises 16:07:00 0° 349° (N) 2,901 6.4 -12.4°
Reaches altitude 10° 16:09:15 10° 350° (N) 1,988 5.6 -12.8°
Maximum altitude 16:13:39 89° 88° (E) 620 3.0 -13.4°
Drops below altitude 10° 16:18:00 10° 171° (S) 1,962 5.7 -14.1°
Sets 16:20:12 0° 172° (S) 2,859 6.6 -14.4°
